When you browse on this site, cookies collect data to enhance your experience and personalize the content and advertising you see.
Visit our Privacy Policy to learn more. By continuing to use the site, you agree to this use of cookies and data.
  • în România
  • Lista ţărilor
  • Pe 7 zile
  • Temperatura apei
  • Meteo pe hartă
  • Widget-uri
  • user-avatar
    Intrare

    Meteo pe oră la A Coruna

    Astăzi, 14 Noiembrie, Joi

    Timp Temperatura Precipitaţii Vânt Presiune Umiditate
    00:00 +6°C° 0.5 mm 9 m/s 754 mmHg 90%
    01:00 +6°C° 0.5 mm 8 m/s 754 mmHg 89%
    02:00 +5°C° 0.5 mm 8 m/s 753 mmHg 89%
    03:00 +5°C° 0.7 mm 8 m/s 753 mmHg 89%
    04:00 +5°C° 0.7 mm 8 m/s 752 mmHg 90%
    05:00 +6°C° 0.7 mm 8 m/s 752 mmHg 90%
    06:00 +6°C° 1.5 mm 9 m/s 751 mmHg 91%
    07:00 +6°C° 1.5 mm 9 m/s 750 mmHg 92%
    08:00 +6°C° 1.5 mm 9 m/s 749 mmHg 93%
    09:00 +7°C° 2.1 mm 11 m/s 749 mmHg 91%
    10:00 +7°C° 2.1 mm 12 m/s 749 mmHg 89%
    11:00 +8°C° 2.1 mm 14 m/s 749 mmHg 87%
    12:00 +8°C° 0.9 mm 13 m/s 750 mmHg 87%
    13:00 +8°C° 0.9 mm 13 m/s 751 mmHg 87%
    14:00 +7°C° 0.9 mm 12 m/s 751 mmHg 87%
    15:00 +7°C° 0.7 mm 11 m/s 752 mmHg 86%
    16:00 +7°C° 0.7 mm 11 m/s 752 mmHg 85%
    17:00 +6°C° 0.7 mm 10 m/s 753 mmHg 85%
    18:00 +6°C° 0.6 mm 10 m/s 753 mmHg 85%
    19:00 +6°C° 0.6 mm 9 m/s 754 mmHg 86%
    20:00 +6°C° 0.6 mm 9 m/s 754 mmHg 86%
    21:00 +6°C° 0.6 mm 9 m/s 754 mmHg 88%
    22:00 +5°C° 0.6 mm 9 m/s 755 mmHg 89%
    23:00 +5°C° 0.6 mm 8 m/s 755 mmHg 91%

    Mâine, 15 Noiembrie, Vineri

    Timp Temperatura Precipitaţii Vânt Presiune Umiditate
    00:00 +5°C° 1 mm 8 m/s 755 mmHg 90%
    01:00 +6°C° 1 mm 8 m/s 755 mmHg 90%
    02:00 +6°C° 1 mm 8 m/s 756 mmHg 89%
    03:00 +5°C° 0.6 mm 8 m/s 756 mmHg 89%
    04:00 +5°C° 0.6 mm 8 m/s 756 mmHg 88%
    05:00 +5°C° 0.6 mm 8 m/s 756 mmHg 88%
    06:00 +5°C° 0.4 mm 8 m/s 756 mmHg 87%
    07:00 +5°C° 0.4 mm 8 m/s 757 mmHg 87%
    08:00 +5°C° 0.4 mm 7 m/s 757 mmHg 87%
    09:00 +6°C° 0.5 mm 8 m/s 757 mmHg 86%
    10:00 +6°C° 0.5 mm 8 m/s 757 mmHg 85%
    11:00 +7°C° 0.5 mm 8 m/s 757 mmHg 84%
    12:00 +6°C° 0.7 mm 8 m/s 757 mmHg 86%
    13:00 +6°C° 0.7 mm 8 m/s 756 mmHg 87%
    14:00 +6°C° 0.7 mm 8 m/s 756 mmHg 88%
    15:00 +6°C° 0.7 mm 8 m/s 757 mmHg 89%
    16:00 +5°C° 0.7 mm 7 m/s 757 mmHg 90%
    17:00 +5°C° 0.7 mm 7 m/s 757 mmHg 91%
    18:00 +5°C° 0.5 mm 6 m/s 758 mmHg 91%
    19:00 +5°C° 0.5 mm 6 m/s 758 mmHg 92%
    20:00 +5°C° 0.5 mm 6 m/s 759 mmHg 92%
    21:00 +6°C° 0.4 mm 5 m/s 759 mmHg 93%
    22:00 +6°C° 0.4 mm 5 m/s 759 mmHg 93%
    23:00 +6°C° 0.4 mm 5 m/s 759 mmHg 94%

    Poimâine, 16 Noiembrie, Sâmbătă

    Timp Temperatura Precipitaţii Vânt Presiune Umiditate
    00:00 +6°C° 0.3 mm 5 m/s 759 mmHg 94%
    01:00 +6°C° 0.3 mm 4 m/s 759 mmHg 94%
    02:00 +6°C° 0.3 mm 4 m/s 759 mmHg 94%
    03:00 +6°C° 0.4 mm 4 m/s 759 mmHg 94%
    04:00 +6°C° 0.4 mm 4 m/s 759 mmHg 95%
    05:00 +7°C° 0.4 mm 5 m/s 759 mmHg 95%
    06:00 +7°C° 0.4 mm 5 m/s 760 mmHg 94%
    07:00 +8°C° 0.4 mm 5 m/s 760 mmHg 93%
    08:00 +8°C° 0.4 mm 5 m/s 761 mmHg 92%
    09:00 +8°C° 0.1 mm 4 m/s 761 mmHg 90%
    10:00 +10°C° 0.1 mm 4 m/s 761 mmHg 88%
    11:00 +10°C° 0.1 mm 4 m/s 761 mmHg 86%
    12:00 +10°C° 0.1 mm 3 m/s 761 mmHg 85%
    13:00 +10°C° 0.1 mm 3 m/s 760 mmHg 84%
    14:00 +10°C° 0.1 mm 3 m/s 760 mmHg 83%
    15:00 +9°C° 0 mm 2 m/s 760 mmHg 86%
    16:00 +8°C° 0 mm 2 m/s 760 mmHg 88%
    17:00 +7°C° 0 mm 2 m/s 760 mmHg 91%
    18:00 +6°C° 0 mm 2 m/s 760 mmHg 91%
    19:00 +5°C° 0 mm 3 m/s 760 mmHg 92%
    20:00 +5°C° 0 mm 3 m/s 760 mmHg 92%
    21:00 +5°C° 0.1 mm 3 m/s 760 mmHg 92%
    22:00 +6°C° 0.1 mm 4 m/s 760 mmHg 91%
    23:00 +6°C° 0.1 mm 4 m/s 759 mmHg 91%

    17 Noiembrie, Duminică

    Timp Temperatura Precipitaţii Vânt Presiune Umiditate
    00:00 +6°C° 0.3 mm 4 m/s 759 mmHg 92%
    01:00 +7°C° 0.3 mm 4 m/s 758 mmHg 93%
    02:00 +7°C° 0.3 mm 4 m/s 757 mmHg 94%
    03:00 +7°C° 0.4 mm 5 m/s 757 mmHg 95%
    04:00 +8°C° 0.4 mm 5 m/s 757 mmHg 95%
    05:00 +9°C° 0.4 mm 5 m/s 757 mmHg 96%
    06:00 +9°C° 0.2 mm 5 m/s 757 mmHg 95%
    07:00 +9°C° 0.2 mm 5 m/s 757 mmHg 93%
    08:00 +9°C° 0.2 mm 5 m/s 757 mmHg 92%
    09:00 +9°C° 0.1 mm 5 m/s 757 mmHg 90%
    10:00 +10°C° 0.1 mm 4 m/s 758 mmHg 88%
    11:00 +11°C° 0.1 mm 4 m/s 758 mmHg 86%
    12:00 +11°C° 0.1 mm 3 m/s 758 mmHg 87%
    13:00 +12°C° 0.1 mm 2 m/s 758 mmHg 88%
    14:00 +12°C° 0.1 mm 2 m/s 758 mmHg 89%
    15:00 +10°C° 0.1 mm 2 m/s 758 mmHg 91%
    16:00 +9°C° 0.1 mm 3 m/s 759 mmHg 94%
    17:00 +9°C° 0.1 mm 3 m/s 759 mmHg 96%
    18:00 +9°C° 0.1 mm 3 m/s 760 mmHg 96%
    19:00 +8°C° 0.1 mm 4 m/s 760 mmHg 96%
    20:00 +8°C° 0.1 mm 4 m/s 761 mmHg 95%
    21:00 +8°C° 0.1 mm 4 m/s 761 mmHg 95%
    22:00 +8°C° 0.1 mm 3 m/s 761 mmHg 95%
    23:00 +8°C° 0.1 mm 3 m/s 761 mmHg 95%

    18 Noiembrie, Luni

    Timp Temperatura Precipitaţii Vânt Presiune Umiditate
    00:00 +7°C° 0.1 mm 4 m/s 761 mmHg 95%
    01:00 +7°C° 0.1 mm 4 m/s 761 mmHg 95%
    02:00 +7°C° 0.1 mm 4 m/s 761 mmHg 95%
    03:00 +8°C° 0.1 mm 3 m/s 762 mmHg 94%
    04:00 +7°C° 0.1 mm 3 m/s 762 mmHg 93%
    05:00 +7°C° 0.1 mm 3 m/s 762 mmHg 93%
    06:00 +7°C° 0 mm 2 m/s 762 mmHg 91%
    07:00 +8°C° 0 mm 2 m/s 762 mmHg 90%
    08:00 +9°C° 0 mm 1 m/s 763 mmHg 88%
    09:00 +10°C° 0 mm 1 m/s 763 mmHg 83%
    10:00 +11°C° 0 mm 1 m/s 763 mmHg 77%
    11:00 +11°C° 0 mm 1 m/s 763 mmHg 72%
    12:00 +11°C° 0 mm 1 m/s 762 mmHg 69%
    13:00 +11°C° 0 mm 1 m/s 761 mmHg 67%
    14:00 +12°C° 0 mm 1 m/s 761 mmHg 64%
    15:00 +10°C° 0 mm 1 m/s 761 mmHg 70%
    16:00 +9°C° 0 mm 1 m/s 761 mmHg 77%
    17:00 +8°C° 0 mm 1 m/s 761 mmHg 84%
    18:00 +7°C° 0 mm 2 m/s 761 mmHg 84%
    19:00 +5°C° 0 mm 3 m/s 760 mmHg 84%
    20:00 +5°C° 0 mm 3 m/s 760 mmHg 85%
    21:00 +6°C° 0 mm 4 m/s 760 mmHg 83%
    22:00 +6°C° 0 mm 4 m/s 759 mmHg 80%
    23:00 +7°C° 0 mm 5 m/s 759 mmHg 78%

    19 Noiembrie, Marţi

    Timp Temperatura Precipitaţii Vânt Presiune Umiditate
    00:00 +7°C° 0.6 mm 5 m/s 758 mmHg 83%
    01:00 +7°C° 0.6 mm 5 m/s 757 mmHg 87%
    02:00 +7°C° 0.6 mm 5 m/s 757 mmHg 91%
    03:00 +7°C° 0.5 mm 5 m/s 756 mmHg 91%
    04:00 +7°C° 0.5 mm 6 m/s 756 mmHg 91%
    05:00 +8°C° 0.5 mm 6 m/s 756 mmHg 92%
    06:00 +8°C° 0.3 mm 5 m/s 756 mmHg 92%
    07:00 +8°C° 0.3 mm 5 m/s 756 mmHg 92%
    08:00 +8°C° 0.3 mm 4 m/s 756 mmHg 92%
    09:00 +10°C° 0.4 mm 4 m/s 756 mmHg 92%
    10:00 +10°C° 0.4 mm 3 m/s 755 mmHg 93%
    11:00 +10°C° 0.4 mm 3 m/s 755 mmHg 94%
    12:00 +10°C° 0.2 mm 3 m/s 755 mmHg 94%
    13:00 +10°C° 0.2 mm 3 m/s 754 mmHg 94%
    14:00 +10°C° 0.2 mm 3 m/s 754 mmHg 94%
    15:00 +10°C° 0 mm 4 m/s 753 mmHg 93%
    16:00 +8°C° 0 mm 4 m/s 753 mmHg 93%
    17:00 +8°C° 0 mm 5 m/s 753 mmHg 93%
    18:00 +8°C° 0 mm 6 m/s 753 mmHg 92%
    19:00 +8°C° 0 mm 6 m/s 752 mmHg 91%
    20:00 +8°C° 0 mm 7 m/s 752 mmHg 90%
    21:00 +8°C° 0.2 mm 7 m/s 751 mmHg 90%
    22:00 +8°C° 0.2 mm 7 m/s 751 mmHg 90%
    23:00 +9°C° 0.2 mm 8 m/s 750 mmHg 89%
    Arată mai mult